ASA183 PANC-PAFA

Flight info

Callsign ASA183
Flight time 0h 40m
Altitude 30000
Route CAWIN LIBER5
Aircraft B737/M-SDE2E3FGHIRWXY/LB1

Departure

Time 2026-05-04 00:45
Airport Ted Stevens Anchorage International Airport (PANC)

Arrival

Time 2026-05-04 01:25
Airport Fairbanks International Airport (PAFA)
Time Latitude Longitude Altitude Speed Heading
2026-05-04 00:27 61.17432 -149.98399 110 ft 0 kts 84°
2026-05-04 00:36 61.17431 -149.98416 110 ft 3 kts 85°
2026-05-04 00:36 61.17430 -149.98457 109 ft 3 kts 92°
2026-05-04 00:37 61.17431 -149.98498 108 ft 3 kts 101°
2026-05-04 00:37 61.17437 -149.98537 108 ft 3 kts 121°
2026-05-04 00:37 61.17448 -149.98564 107 ft 2 kts 162°
2026-05-04 00:37 61.17453 -149.98568 108 ft 1 kts 174°
2026-05-04 00:40 61.17452 -149.98567 108 ft 1 kts 174°
2026-05-04 00:40 61.17411 -149.98572 108 ft 11 kts 199°
2026-05-04 00:40 61.17325 -149.98686 109 ft 15 kts 213°
2026-05-04 00:40 61.17231 -149.98771 110 ft 15 kts 171°
2026-05-04 00:41 61.17135 -149.98747 112 ft 14 kts 217°
2026-05-04 00:41 61.17122 -149.98942 115 ft 15 kts 274°
2026-05-04 00:41 61.17125 -149.99222 118 ft 23 kts 270°
2026-05-04 00:41 61.17124 -149.99565 124 ft 23 kts 270°
2026-05-04 00:42 61.17125 -149.99891 130 ft 23 kts 269°
2026-05-04 00:42 61.17125 -150.00209 135 ft 20 kts 268°
2026-05-04 00:42 61.17124 -150.00475 136 ft 17 kts 270°
2026-05-04 00:42 61.17124 -150.00701 136 ft 15 kts 268°
2026-05-04 00:43 61.17084 -150.00813 135 ft 8 kts 184°
2026-05-04 00:43 61.17065 -150.00813 134 ft 0 kts 178°
2026-05-04 00:44 61.17063 -150.00813 134 ft 1 kts 179°
2026-05-04 00:44 61.17027 -150.00806 134 ft 9 kts 164°
2026-05-04 00:44 61.16980 -150.00673 136 ft 17 kts 101°
2026-05-04 00:44 61.16977 -150.00290 134 ft 36 kts 90°
2026-05-04 00:45 61.16978 -149.99358 123 ft 103 kts 90°
2026-05-04 00:45 61.16982 -149.97376 179 ft 164 kts 89°
2026-05-04 00:45 61.17209 -149.95053 1014 ft 165 kts 58°
2026-05-04 00:45 61.18063 -149.93827 2263 ft 149 kts 13°
2026-05-04 00:46 61.19125 -149.93433 3031 ft 169 kts 13°
2026-05-04 00:46 61.20418 -149.92948 3457 ft 208 kts 12°
2026-05-04 00:46 61.21949 -149.92374 3956 ft 232 kts 12°
2026-05-04 00:46 61.23546 -149.91769 4807 ft 239 kts 13°
2026-05-04 00:47 61.25258 -149.91102 5426 ft 261 kts 13°
2026-05-04 00:47 61.27097 -149.90369 6257 ft 274 kts 13°
2026-05-04 00:47 61.29012 -149.89593 7136 ft 285 kts 13°
2026-05-04 00:47 61.30971 -149.88788 8121 ft 289 kts 13°
2026-05-04 00:48 61.32965 -149.87959 9024 ft 295 kts 12°
2026-05-04 00:48 61.35003 -149.87105 9907 ft 302 kts 12°
2026-05-04 00:48 61.37073 -149.86230 10502 ft 317 kts 12°
2026-05-04 00:48 61.39296 -149.85286 11063 ft 331 kts 11°
2026-05-04 00:49 61.41582 -149.84310 11854 ft 339 kts 11°
2026-05-04 00:49 61.43912 -149.83313 12658 ft 345 kts 10°
2026-05-04 00:49 61.46290 -149.82291 13439 ft 352 kts
2026-05-04 00:49 61.48717 -149.81246 14188 ft 359 kts
2026-05-04 00:50 61.51186 -149.80181 14925 ft 366 kts
2026-05-04 00:50 61.53704 -149.79092 15687 ft 373 kts
2026-05-04 00:50 61.56234 -149.77996 16468 ft 379 kts
2026-05-04 00:50 61.58850 -149.76860 17259 ft 386 kts
2026-05-04 00:51 61.61502 -149.75707 18008 ft 393 kts
2026-05-04 00:51 61.64205 -149.74530 18704 ft 399 kts
2026-05-04 00:51 61.66946 -149.73332 19399 ft 404 kts
2026-05-04 00:51 61.69713 -149.72119 20125 ft 408 kts
2026-05-04 00:52 61.72477 -149.70906 20825 ft 412 kts
2026-05-04 00:52 61.75308 -149.69661 21504 ft 417 kts
2026-05-04 00:52 61.78172 -149.68400 22176 ft 422 kts
2026-05-04 00:52 61.81067 -149.67123 22844 ft 427 kts
2026-05-04 00:53 61.83996 -149.65830 23528 ft 432 kts
2026-05-04 00:53 61.86923 -149.64540 24095 ft 436 kts
2026-05-04 00:53 61.89907 -149.63221 24663 ft 440 kts
2026-05-04 00:53 61.92915 -149.61883 25348 ft 440 kts
2026-05-04 00:54 61.95905 -149.60547 26073 ft 440 kts
2026-05-04 00:54 61.98901 -149.59205 26767 ft 440 kts
2026-05-04 00:54 62.01899 -149.57861 27424 ft 441 kts
2026-05-04 00:54 62.04915 -149.56509 28121 ft 442 kts
2026-05-04 00:55 62.07936 -149.55152 28789 ft 443 kts
2026-05-04 00:55 62.10953 -149.53793 29483 ft 444 kts
2026-05-04 00:55 62.13941 -149.52446 30094 ft 445 kts
2026-05-04 00:55 62.17037 -149.51053 30162 ft 457 kts
2026-05-04 00:56 62.20196 -149.49640 30175 ft 470 kts
2026-05-04 00:56 62.23408 -149.48197 30191 ft 482 kts
2026-05-04 00:56 62.26735 -149.46692 30177 ft 494 kts
2026-05-04 00:57 62.33603 -149.43554 30193 ft 514 kts
2026-05-04 00:57 62.40725 -149.40274 30168 ft 530 kts
2026-05-04 00:58 62.48027 -149.36895 30184 ft 543 kts
2026-05-04 00:58 62.55437 -149.33446 30165 ft 544 kts
2026-05-04 00:59 62.62793 -149.30004 30166 ft 543 kts
2026-05-04 00:59 62.70174 -149.26544 30175 ft 542 kts
2026-05-04 01:00 62.77555 -149.23074 30162 ft 541 kts
2026-05-04 01:00 62.84925 -149.19589 30179 ft 541 kts
2026-05-04 01:01 62.92240 -149.16112 30184 ft 541 kts
2026-05-04 01:01 62.99614 -149.12589 30183 ft 542 kts
2026-05-04 01:02 63.07004 -149.09040 30189 ft 543 kts
2026-05-04 01:02 63.14314 -149.05494 30184 ft 523 kts
2026-05-04 01:02 63.17808 -149.03780 30170 ft 504 kts
2026-05-04 01:03 63.21134 -149.02159 30158 ft 487 kts
2026-05-04 01:03 63.24395 -149.00576 30176 ft 471 kts
2026-05-04 01:03 63.27580 -148.99030 29817 ft 465 kts
2026-05-04 01:03 63.30725 -148.97415 29449 ft 463 kts
2026-05-04 01:04 63.33828 -148.95577 29045 ft 459 kts
2026-05-04 01:04 63.36900 -148.93642 28621 ft 456 kts
2026-05-04 01:04 63.39941 -148.91700 28186 ft 453 kts
2026-05-04 01:04 63.42965 -148.89779 27750 ft 450 kts
2026-05-04 01:05 63.45974 -148.87888 27337 ft 447 kts
2026-05-04 01:05 63.48938 -148.86043 26907 ft 445 kts
2026-05-04 01:05 63.51921 -148.84195 26509 ft 442 kts
2026-05-04 01:05 63.54879 -148.82365 26065 ft 440 kts
2026-05-04 01:06 63.57823 -148.80544 25659 ft 437 kts
2026-05-04 01:06 63.60747 -148.78731 25240 ft 435 kts
2026-05-04 01:06 63.63657 -148.76923 24822 ft 432 kts
2026-05-04 01:06 63.66517 -148.75141 24411 ft 430 kts
2026-05-04 01:07 63.69397 -148.73343 24008 ft 428 kts
2026-05-04 01:07 63.72274 -148.71542 23519 ft 428 kts
2026-05-04 01:07 63.75133 -148.69750 23056 ft 425 kts
2026-05-04 01:07 63.77968 -148.67966 22612 ft 421 kts
2026-05-04 01:08 63.80775 -148.66192 22211 ft 417 kts
2026-05-04 01:08 63.83559 -148.64435 21794 ft 414 kts
2026-05-04 01:08 63.86321 -148.62687 21375 ft 410 kts
2026-05-04 01:08 63.89060 -148.60951 20953 ft 407 kts
2026-05-04 01:09 63.91737 -148.59252 20556 ft 403 kts
2026-05-04 01:09 63.94422 -148.57543 20134 ft 399 kts
2026-05-04 01:09 63.97092 -148.55842 19733 ft 395 kts
2026-05-04 01:09 63.99729 -148.54158 19341 ft 391 kts
2026-05-04 01:10 64.02347 -148.52484 18946 ft 392 kts 10°
2026-05-04 01:10 64.04974 -148.50800 18528 ft 392 kts 11°
2026-05-04 01:10 64.07576 -148.49121 18250 ft 384 kts 11°
2026-05-04 01:10 64.10123 -148.47471 17948 ft 377 kts 11°
2026-05-04 01:11 64.12629 -148.45849 17671 ft 372 kts 11°
2026-05-04 01:11 64.15108 -148.44244 17364 ft 369 kts 11°
2026-05-04 01:11 64.17580 -148.42642 16982 ft 369 kts 12°
2026-05-04 01:11 64.20053 -148.41033 16580 ft 369 kts 12°
2026-05-04 01:12 64.22499 -148.39435 16275 ft 363 kts 12°
2026-05-04 01:12 64.24882 -148.37876 15860 ft 359 kts 13°
2026-05-04 01:12 64.27266 -148.36315 15440 ft 354 kts 13°
2026-05-04 01:12 64.29622 -148.34771 15025 ft 350 kts 13°
2026-05-04 01:13 64.31954 -148.33239 14609 ft 346 kts 14°
2026-05-04 01:13 64.34253 -148.31710 14203 ft 342 kts 16°
2026-05-04 01:13 64.36379 -148.29346 13925 ft 335 kts 32°
2026-05-04 01:13 64.38311 -148.26390 13514 ft 331 kts 33°
2026-05-04 01:14 64.40212 -148.23415 13132 ft 330 kts 33°
2026-05-04 01:14 64.42122 -148.20422 12704 ft 332 kts 33°
2026-05-04 01:14 64.44001 -148.17490 12288 ft 331 kts 34°
2026-05-04 01:14 64.45287 -148.15487 12001 ft 329 kts 34°
2026-05-04 01:15 64.47792 -148.11600 11445 ft 325 kts 34°
2026-05-04 01:15 64.49662 -148.08701 11038 ft 322 kts 34°
2026-05-04 01:15 64.51516 -148.05828 10621 ft 316 kts 34°
2026-05-04 01:15 64.52716 -148.03969 10349 ft 311 kts 34°
2026-05-04 01:16 64.54498 -148.01204 10038 ft 302 kts 34°
2026-05-04 01:16 64.56217 -147.98531 9714 ft 297 kts 34°
2026-05-04 01:16 64.57919 -147.95879 9358 ft 292 kts 34°
2026-05-04 01:16 64.59600 -147.93257 8973 ft 288 kts 34°
2026-05-04 01:17 64.61259 -147.90667 8615 ft 286 kts 34°
2026-05-04 01:17 64.62914 -147.88080 8248 ft 286 kts 34°
2026-05-04 01:17 64.64563 -147.85496 7886 ft 285 kts 34°
2026-05-04 01:17 64.66187 -147.82949 7524 ft 285 kts 34°
2026-05-04 01:18 64.67828 -147.80371 7169 ft 284 kts 34°
2026-05-04 01:18 64.69466 -147.77795 6814 ft 283 kts 34°
2026-05-04 01:18 64.71098 -147.75226 6538 ft 280 kts 34°
2026-05-04 01:18 64.72691 -147.72715 6416 ft 272 kts 34°
2026-05-04 01:19 64.74265 -147.70229 6290 ft 274 kts 34°
2026-05-04 01:19 64.75834 -147.67744 6148 ft 278 kts 35°
2026-05-04 01:19 64.77411 -147.64997 5807 ft 284 kts 39°
2026-05-04 01:19 64.78933 -147.62173 5669 ft 271 kts 39°
2026-05-04 01:20 64.80378 -147.59469 5432 ft 260 kts 39°
2026-05-04 01:20 64.81758 -147.56903 5153 ft 246 kts 39°
2026-05-04 01:20 64.83066 -147.54480 4873 ft 234 kts 39°
2026-05-04 01:20 64.84409 -147.52422 4569 ft 228 kts 24°
2026-05-04 01:21 64.85912 -147.51487 4331 ft 222 kts
2026-05-04 01:21 64.87456 -147.51681 4049 ft 223 kts 346°
2026-05-04 01:21 64.88880 -147.52944 3774 ft 222 kts 327°
2026-05-04 01:21 64.90073 -147.55195 3519 ft 220 kts 310°
2026-05-04 01:22 64.90924 -147.58175 3099 ft 222 kts 292°
2026-05-04 01:22 64.91340 -147.61564 2851 ft 206 kts 275°
2026-05-04 01:22 64.91330 -147.64739 2697 ft 183 kts 260°
2026-05-04 01:22 64.90962 -147.67609 2501 ft 185 kts 244°
2026-05-04 01:23 64.90244 -147.70083 2293 ft 183 kts 225°
2026-05-04 01:23 64.89295 -147.72041 2041 ft 181 kts 218°
2026-05-04 01:23 64.88313 -147.73838 1795 ft 174 kts 217°
2026-05-04 01:23 64.87415 -147.75469 1623 ft 152 kts 217°
2026-05-04 01:24 64.86606 -147.76932 1393 ft 144 kts 217°
2026-05-04 01:24 64.85831 -147.78343 1205 ft 139 kts 217°
2026-05-04 01:24 64.85089 -147.79704 1056 ft 136 kts 217°
2026-05-04 01:24 64.84329 -147.81098 902 ft 139 kts 216°
2026-05-04 01:25 64.83580 -147.82480 697 ft 134 kts 217°
2026-05-04 01:25 64.82843 -147.83846 518 ft 135 kts 218°
2026-05-04 01:25 64.82131 -147.85161 431 ft 111 kts 219°
2026-05-04 01:25 64.81693 -147.85970 436 ft 49 kts 218°
2026-05-04 01:26 64.81545 -147.86240 439 ft 20 kts 218°
2026-05-04 01:26 64.81466 -147.86386 439 ft 20 kts 218°